AL7BX-WX Weather Reports


time (UTC)temp
C
wind
direction
speed
KPH
gust
KPH
rain 1hr
cm
rain 24hr
cm
rain mn
cm
humidity
%
barometer
mb
20260906072703 14 156 0.0 1.6 0.00 0.00 0.00 51
20260906071803 14 157 0.0 4.8 0.00 0.00 0.00 51
20260906070903 15 157 0.0 1.6 0.00 0.00 0.00 49
20260906070003 15 157 0.0 1.6 0.00 0.00 0.00 50
20260906065403 15 0 0.0 0.0 0.00 0.00 0.00 49
20260906064503 15 157 0.0 3.2 0.00 0.00 0.00 49
20260906063603 14 157 0.0 1.6 0.00 0.00 0.00 49
20260906062703 15 157 0.0 1.6 0.00 0.00 0.00 48
20260906061803 15 204 0.0 1.6 0.00 0.00 0.00 48
20260906061113 15 203 0.0 1.6 0.00 0.00 0.00 48
20260906060218 15 0 0.0 0.0 0.00 0.00 0.00 47
20260906055614 15 0 0.0 0.0 0.00 0.00 0.00 47
20260906054503 16 0 0.0 0.0 0.00 0.00 0.00 45
20260906053603 17 216 0.0 3.2 0.00 0.00 0.00 43
20260906052703 17 220 0.0 3.2 0.00 0.00 0.00 43
20260906052013 17 214 0.0 1.6 0.00 0.00 0.00 42
20260906051112 17 208 0.0 4.8 0.00 0.00 0.00 41
20260906050004 17 217 1.6 4.8 0.00 0.00 0.00 41
20260906045403 18 344 0.0 3.2 0.00 0.00 0.00 40
20260906044503 18 42 0.0 3.2 0.00 0.00 0.00 39
20260906043603 19 156 1.6 6.4 0.00 0.00 0.00 38
20260906042703 19 156 1.6 6.4 0.00 0.00 0.00 37
20260906041803 20 175 3.2 8.0 0.00 0.00 0.00 37
20260906040903 20 187 4.8 8.0 0.00 0.00 0.00 37
20260906040003 20 201 4.8 9.7 0.00 0.00 0.00 37
20260906035403 20 197 4.8 9.7 0.00 0.00 0.00 37
20260906034503 20 268 4.8 8.0 0.00 0.00 0.00 37
20260906033603 20 360 4.8 11.3 0.00 0.00 0.00 37
20260906032703 20 360 6.4 12.9 0.00 0.00 0.00 36
20260906031803 20 306 6.4 11.3 0.00 0.00 0.00 36
20260906030903 21 240 6.4 11.3 0.00 0.00 0.00 36
20260906030003 21 242 6.4 14.5 0.00 0.00 0.00 35
20260906025403 21 234 8.0 14.5 0.00 0.00 0.00 34
20260906024503 21 267 6.4 14.5 0.00 0.00 0.00 34
20260906023603 21 234 6.4 19.3 0.00 0.00 0.00 33
20260906022703 22 238 6.4 14.5 0.00 0.00 0.00 33
20260906022014 22 255 4.8 9.7 0.00 0.00 0.00 32
20260906020903 22 332 6.4 16.1 0.00 0.00 0.00 31
20260906020212 23 360 9.7 22.5 0.00 0.00 0.00 31
20260906015614 23 360 9.7 24.1 0.00 0.00 0.00 30
20260906014503 24 216 11.3 25.7 0.00 0.00 0.00 30
20260906013603 24 347 11.3 33.8 0.00 0.00 0.00 30
20260906012912 25 350 11.3 25.7 0.00 0.00 0.00 29
20260906012014 25 353 14.5 29.0 0.00 0.00 0.00 28
20260906010903 25 312 11.3 25.7 0.00 0.00 0.00 28
20260906010003 26 324 14.5 29.0 0.00 0.00 0.00 27
20260906005614 26 302 14.5 29.0 0.00 0.00 0.00 28
20260906004503 26 210 11.3 25.7 0.00 0.00 0.00 27
20260906003603 26 190 11.3 27.4 0.00 0.00 0.00 27
20260906002703 26 206 14.5 32.2 0.00 0.00 0.00 27
20260906001803 26 327 14.5 33.8 0.00 0.00 0.00 27
20260906000903 26 360 14.5 33.8 0.00 0.00 0.00 26
20260906000003 26 359 16.1 29.0 0.00 0.00 0.00 27
20260905235403 27 359 16.1 30.6 0.00 0.00 0.00 27
20260905234503 27 360 16.1 32.2 0.00 0.00 0.00 27
20260905233603 27 360 17.7 35.4 0.00 0.00 0.00 27
20260905232703 27 360 20.9 40.2 0.00 0.00 0.00 26
20260905231803 27 360 17.7 32.2 0.00 0.00 0.00 26
20260905230903 27 360 19.3 37.0 0.00 0.00 0.00 26
20260905230213 27 360 17.7 35.4 0.00 0.00 0.00 26
20260905225403 27 360 16.1 33.8 0.00 0.00 0.00 26
20260905224712 27 360 19.3 35.4 0.00 0.00 0.00 26
20260905223814 27 360 19.3 40.2 0.00 0.00 0.00 24
20260905222703 27 360 22.5 40.2 0.00 0.00 0.00 25
20260905221803 28 360 16.1 32.2 0.00 0.00 0.00 24
20260905220903 28 359 16.1 48.3 0.00 0.00 0.00 25
20260905220213 27 353 17.7 37.0 0.00 0.00 0.00 25
20260905215403 27 328 17.7 38.6 0.00 0.00 0.00 27
20260905214503 27 341 16.1 32.2 0.00 0.00 0.00 27
20260905213603 27 312 16.1 30.6 0.00 0.00 0.00 27
20260905212703 27 213 17.7 38.6 0.00 0.00 0.00 27
20260905212014 27 197 19.3 38.6 0.00 0.00 0.00 27
20260905210903 27 191 20.9 41.8 0.00 0.00 0.00 25
20260905210003 27 182 19.3 45.1 0.00 0.00 0.00 26
20260905205403 27 188 17.7 45.1 0.00 0.00 0.00 26
20260905204714 27 187 16.1 30.6 0.00 0.00 0.00 27
20260905203603 27 289 19.3 37.0 0.00 0.00 0.00 27
20260905202703 27 286 19.3 37.0 0.00 0.00 0.00 27
20260905201803 27 359 22.5 48.3 0.00 0.00 0.00 27
20260905201113 27 345 22.5 46.7 0.00 0.00 0.00 27
20260905200003 27 281 22.5 38.6 0.00 0.00 0.00 27
20260905195403 27 293 20.9 49.9 0.00 0.00 0.00 27
20260905194503 27 292 19.3 38.6 0.00 0.00 0.00 28
20260905193603 26 203 20.9 43.5 0.00 0.00 0.00 27
20260905192914 26 194 19.3 38.6 0.00 0.00 0.00 26
20260905192013 26 195 19.3 45.1 0.00 0.00 0.00 28
20260905190903 26 192 20.9 45.1 0.00 0.00 0.00 27
20260905190003 26 189 20.9 45.1 0.00 0.00 0.00 26
20260905185403 26 187 22.5 49.9 0.00 0.00 0.00 29
20260905184713 25 185 24.1 51.5 0.00 0.00 0.00 29
20260905183603 25 180 20.9 41.8 0.00 0.00 0.00 30
20260905182703 25 180 16.1 35.4 0.00 0.00 0.00 29
20260905181803 25 186 16.1 32.2 0.00 0.00 0.00 30
20260905180903 25 190 19.3 41.8 0.00 0.00 0.00 30
20260905180003 25 183 16.1 33.8 0.00 0.00 0.00 28
20260905175404 25 176 14.5 30.6 0.00 0.00 0.00 30
20260905174503 25 188 19.3 40.2 0.00 0.00 0.00 29
20260905173603 24 185 19.3 38.6 0.00 0.00 0.00 29
20260905172913 24 187 16.1 38.6 0.00 0.00 0.00 29
20260905171803 24 187 19.3 33.8 0.00 0.00 0.00 30
20260905170903 24 186 17.7 37.0 0.00 0.00 0.00 32
20260905170003 23 185 16.1 35.4 0.00 0.00 0.00 32
20260905165403 23 189 14.5 32.2 0.00 0.00 0.00 32
20260905164503 23 178 16.1 32.2 0.00 0.00 0.00 31
20260905163814 23 179 14.5 27.4 0.00 0.00 0.00 32
20260905162913 23 177 9.7 24.1 0.00 0.00 0.00 32
20260905161803 23 176 12.9 27.4 0.00 0.00 0.00 31
20260905160903 22 187 11.3 20.9 0.00 0.00 0.00 31
20260905160003 21 183 11.3 22.5 0.00 0.00 0.00 31
20260905155403 21 170 9.7 22.5 0.00 0.00 0.00 34
20260905154503 20 184 8.0 20.9 0.00 0.00 0.00 32
20260905153603 20 185 8.0 17.7 0.00 0.00 0.00 30
20260905152703 20 193 8.0 17.7 0.00 0.00 0.00 31
20260905151803 20 189 6.4 16.1 0.00 0.00 0.00 31
20260905150903 18 183 1.6 8.0 0.00 0.00 0.00 35
20260905150003 17 198 0.0 1.6 0.00 0.00 0.00 42
20260905145403 16 198 0.0 3.2 0.00 0.00 0.00 43
20260905144503 15 198 0.0 1.6 0.00 0.00 0.00 47
20260905143603 14 198 0.0 1.6 0.00 0.00 0.00 44
20260905142703 15 198 0.0 3.2 0.00 0.00 0.00 43
20260905141803 14 193 3.2 8.0 0.00 0.00 0.00 39
20260905140903 13 188 1.6 6.4 0.00 0.00 0.00 39
20260905140004 13 188 0.0 3.2 0.00 0.00 0.00 40
20260905135403 13 188 0.0 4.8 0.00 0.00 0.00 41
20260905134504 13 188 1.6 4.8 0.00 0.00 0.00 41
20260905133603 13 188 1.6 4.8 0.00 0.00 0.00 39
20260905132703 13 188 3.2 6.4 0.00 0.00 0.00 38
20260905131803 13 189 1.6 4.8 0.00 0.00 0.00 39
20260905131112 13 190 1.6 6.4 0.00 0.00 0.00 38
20260905130003 14 182 3.2 6.4 0.00 0.00 0.00 37
20260905125613 14 182 3.2 8.0 0.00 0.00 0.00 37
20260905124503 14 183 3.2 6.4 0.00 0.00 0.00 37
20260905123603 14 183 3.2 6.4 0.00 0.00 0.00 38
20260905122913 14 183 1.6 6.4 0.00 0.00 0.00 38
20260905121803 15 182 3.2 8.0 0.00 0.00 0.00 39
20260905120903 15 184 4.8 9.7 0.00 0.00 0.00 38
20260905120004 15 184 3.2 8.0 0.00 0.00 0.00 38
20260905115403 15 181 3.2 6.4 0.00 0.00 0.00 38
20260905114503 16 180 1.6 4.8 0.00 0.00 0.00 38
20260905113603 16 201 3.2 6.4 0.00 0.00 0.00 37
20260905112703 16 222 3.2 8.0 0.00 0.00 0.00 38
20260905111803 16 213 3.2 9.7 0.00 0.00 0.00 37
20260905110903 16 229 3.2 9.7 0.00 0.00 0.00 37
20260905110003 16 236 3.2 8.0 0.00 0.00 0.00 36
20260905105403 16 232 3.2 8.0 0.00 0.00 0.00 36
20260905104503 16 217 1.6 6.4 0.00 0.00 0.00 36
20260905103603 16 228 1.6 8.0 0.00 0.00 0.00 36
20260905102912 16 241 3.2 8.0 0.00 0.00 0.00 36
20260905101803 16 253 4.8 9.7 0.00 0.00 0.00 36
20260905100903 17 248 4.8 16.1 0.00 0.00 0.00 35
20260905100003 17 240 4.8 16.1 0.00 0.00 0.00 34
20260905095403 17 223 3.2 14.5 0.00 0.00 0.00 34
20260905094503 17 233 3.2 19.3 0.00 0.00 0.00 34
20260905093603 18 214 4.8 16.1 0.00 0.00 0.00 33
20260905092703 18 205 6.4 16.1 0.00 0.00 0.00 33
20260905091803 18 202 6.4 16.1 0.00 0.00 0.00 33
20260905090903 18 196 6.4 11.3 0.00 0.00 0.00 32
20260905090214 18 189 6.4 14.5 0.00 0.00 0.00 31
20260905085403 18 194 6.4 16.1 0.00 0.00 0.00 31
20260905084713 18 196 8.0 17.7 0.00 0.00 0.00 31
20260905083603 18 191 6.4 17.7 0.00 0.00 0.00 31
20260905082703 18 199 6.4 17.7 0.00 0.00 0.00 31
20260905081803 18 202 6.4 14.5 0.00 0.00 0.00 30
20260905080903 18 203 6.4 14.5 0.00 0.00 0.00 30
20260905080003 18 199 6.4 12.9 0.00 0.00 0.00 30
20260905075403 19 196 6.4 11.3 0.00 0.00 0.00 29
20260905074503 20 188 9.7 17.7 0.00 0.00 0.00 28
20260905073603 20 185 9.7 25.7 0.00 0.00 0.00 27